Bad Axe, MI

3:54 AM EDT on August 31, 2016 (GMT -0400)
Huron County Memorial

Weather History for KBAX - December, 2013

Change the Weather History Date:

Saturday, December 21, 2013

  Actual Average (KP58) Record (KP58)
Temperature  
Mean Temperature 32 °F -  
Max Temperature 32 °F 30 °F 43 °F (2012)
Min Temperature 31 °F 21 °F 8 °F (2000)
Degree Days  
Heating Degree Days 34    
Moisture  
Dew Point 30 °F    
Average Humidity 93    
Maximum Humidity 98    
Minimum Humidity 88    
Precipitation  
Precipitation 0.00 in - - ()
Sea Level Pressure  
Sea Level Pressure 29.82 in    
Wind  
Wind Speed 6 mph (NNE)    
Max Wind Speed 16 mph    
Max Gust Speed 22 mph    
Visibility 8 miles    
Events Snow    
Averages and records for this station are not official NWS values.
T = Trace of Precipitation, MM = Missing Value Source: NWS Daily Summary

Daily Weather History Graph

Daily Weather History Graph

Search for Another Location

Airport or City:

Trip Planner

Search our weather history database for the weather conditions in past years. The results will help you decide how hot, cold, wet, or windy it might be!

Date:

Astronomy

Dec. 21, 2013 Rise Set
Actual Time 8:02 AM EST 4:57 PM EST
Civil Twilight 7:29 AM EST 5:30 PM EST
Nautical Twilight 6:53 AM EST 6:07 PM EST
Astronomical Twilight 6:18 AM EST 6:42 PM EST
Moon 9:20 PM EST (12/21) 10:21 AM EST (12/21)
Length of Visible Light 10h 00m
Length of Day
8h 54m
Waning Gibbous, 84% of the Moon is Illuminated
Dec 21
Waning Gibbous
Dec 25
Last Quarter
Jan 1
New
Jan 7
First Quarter
Jan 15
Full

Hourly Weather History & Observations

Time (EST) Temp. Windchill Dew Point Humidity Pressure Visibility Wind Dir Wind Speed Gust Speed Precip Events Conditions
12:13 AM 32.4 °F 26.9 °F 31.6 °F 97% 29.74 in 10.0 mi NNE 5.8 mph - N/A   Overcast
12:33 AM 32.4 °F - 31.6 °F 97% 29.73 in 10.0 mi Calm Calm - N/A   Overcast
12:53 AM 32.4 °F - 31.6 °F 97% 29.73 in 10.0 mi Calm Calm - N/A   Overcast
1:13 AM 32.4 °F 27.9 °F 31.6 °F 97% 29.73 in 10.0 mi North 4.6 mph - N/A   Overcast
1:33 AM 32.4 °F 27.9 °F 31.8 °F 98% 29.72 in 10.0 mi North 4.6 mph - N/A   Overcast
1:53 AM 32.4 °F 27.9 °F 31.8 °F 98% 29.73 in 4.0 mi North 4.6 mph - N/A   Overcast
2:13 AM 32.4 °F 26.9 °F 31.8 °F 98% 29.74 in 4.0 mi North 5.8 mph - N/A   Overcast
2:33 AM 32.4 °F 29.1 °F 31.8 °F 98% 29.74 in 10.0 mi North 3.5 mph - N/A   Overcast
2:53 AM 32.5 °F 28.1 °F 32.0 °F 98% 29.75 in 10.0 mi North 4.6 mph - N/A   Overcast
3:13 AM 32.5 °F 27.1 °F 32.0 °F 98% 29.75 in 10.0 mi North 5.8 mph - N/A   Overcast
3:33 AM 32.5 °F 28.1 °F 31.8 °F 97% 29.76 in 10.0 mi North 4.6 mph - N/A   Overcast
3:53 AM 32.5 °F 27.1 °F 31.8 °F 97% 29.75 in 10.0 mi North 5.8 mph - N/A   Overcast
4:13 AM 32.5 °F 28.1 °F 31.6 °F 96% 29.77 in 10.0 mi North 4.6 mph - N/A   Overcast
4:33 AM 32.5 °F 28.1 °F 31.6 °F 96% 29.75 in 10.0 mi North 4.6 mph - N/A   Overcast
4:53 AM 32.5 °F 28.1 °F 31.6 °F 96% 29.76 in 10.0 mi North 4.6 mph - N/A   Overcast
5:13 AM 32.5 °F 27.1 °F 31.6 °F 96% 29.77 in 10.0 mi North 5.8 mph - N/A   Overcast
5:33 AM 32.5 °F 27.1 °F 31.6 °F 96% 29.78 in 10.0 mi North 5.8 mph - N/A   Overcast
5:53 AM 32.9 °F 28.5 °F 31.6 °F 95% 29.79 in 10.0 mi North 4.6 mph - N/A   Overcast
6:13 AM 32.9 °F 28.5 °F 31.5 °F 94% 29.79 in 10.0 mi North 4.6 mph - N/A   Overcast
6:33 AM 32.9 °F 28.5 °F 31.6 °F 95% 29.79 in 10.0 mi North 4.6 mph - N/A   Overcast
6:53 AM 32.9 °F 28.5 °F 31.6 °F 95% 29.80 in 10.0 mi North 4.6 mph - N/A   Overcast
7:13 AM 32.7 °F 29.6 °F 31.6 °F 96% 29.79 in 10.0 mi North 3.5 mph - N/A   Overcast
7:33 AM 32.5 °F 28.1 °F 31.3 °F 95% 29.79 in 10.0 mi North 4.6 mph - N/A   Overcast
7:53 AM 32.5 °F 29.3 °F 31.1 °F 94% 29.80 in 10.0 mi North 3.5 mph - N/A   Overcast
8:13 AM 32.5 °F 26.2 °F 31.1 °F 94% 29.84 in 10.0 mi NNW 6.9 mph - N/A   Overcast
8:33 AM 32.5 °F 28.1 °F 31.1 °F 94% 29.82 in 10.0 mi North 4.6 mph - N/A   Overcast
8:53 AM 32.4 °F 26.9 °F 31.1 °F 95% 29.84 in 10.0 mi North 5.8 mph - N/A   Overcast
9:13 AM 32.5 °F 27.1 °F 31.1 °F 94% 29.87 in 10.0 mi NNW 5.8 mph - N/A   Overcast
9:33 AM 32.5 °F 28.1 °F 31.1 °F 94% 29.87 in 10.0 mi North 4.6 mph - N/A   Overcast
9:53 AM 32.5 °F 27.1 °F 30.9 °F 94% 29.88 in 10.0 mi North 5.8 mph - N/A   Overcast
10:13 AM 32.4 °F 25.3 °F 30.9 °F 94% 29.85 in 10.0 mi North 8.1 mph - N/A   Overcast
10:33 AM 32.4 °F 26.0 °F 30.7 °F 94% 29.85 in 10.0 mi North 6.9 mph - N/A   Overcast
10:53 AM 32.4 °F 26.9 °F 30.4 °F 92% 29.86 in 10.0 mi NNE 5.8 mph - N/A   Overcast
11:13 AM 32.4 °F 26.9 °F 30.2 °F 92% 29.86 in 10.0 mi NE 5.8 mph - N/A   Overcast
11:33 AM 32.5 °F 25.5 °F 30.2 °F 91% 29.86 in 10.0 mi NNE 8.1 mph - N/A   Overcast
11:53 AM 32.5 °F 26.2 °F 30.6 °F 92% 29.87 in 10.0 mi North 6.9 mph - N/A   Overcast
12:13 PM 32.5 °F 24.2 °F 30.2 °F 91% 29.84 in 10.0 mi NNE 10.4 mph - N/A   Overcast
12:33 PM 32.4 °F 24.0 °F 30.0 °F 91% 29.84 in 10.0 mi NNE 10.4 mph - N/A   Overcast
12:53 PM 32.2 °F 24.4 °F 29.7 °F 90% 29.84 in 10.0 mi NNE 9.2 mph 16.1 mph N/A   Overcast
1:13 PM 32.2 °F 23.2 °F 29.3 °F 89% 29.85 in 10.0 mi NNE 11.5 mph - N/A   Overcast
1:33 PM 32.0 °F 25.6 °F 29.3 °F 90% 29.85 in 10.0 mi NNE 6.9 mph - N/A   Overcast
1:53 PM 32.0 °F 25.6 °F 29.3 °F 90% 29.85 in 10.0 mi NNE 6.9 mph - N/A   Overcast
2:13 PM 32.0 °F 25.6 °F 29.1 °F 89% 29.85 in 10.0 mi NNE 6.9 mph - N/A   Overcast
2:33 PM 32.0 °F 24.2 °F 29.1 °F 89% 29.86 in 10.0 mi NNE 9.2 mph - N/A   Overcast
2:53 PM 32.0 °F 25.6 °F 29.1 °F 89% 29.87 in 10.0 mi NNE 6.9 mph - N/A   Overcast
3:13 PM 32.0 °F 24.8 °F 28.9 °F 88% 29.87 in 10.0 mi NNE 8.1 mph - N/A   Overcast
3:33 PM 32.0 °F 25.6 °F 28.9 °F 88% 29.87 in 10.0 mi NNE 6.9 mph - N/A   Overcast
3:53 PM 31.8 °F 23.9 °F 28.9 °F 89% 29.88 in 10.0 mi NNE 9.2 mph - N/A   Overcast
4:13 PM 31.8 °F 25.4 °F 28.9 °F 89% 29.87 in 10.0 mi NNE 6.9 mph - N/A   Overcast
4:33 PM 32.0 °F 25.6 °F 29.1 °F 89% 29.87 in 10.0 mi NNE 6.9 mph - N/A   Overcast
4:53 PM 32.0 °F 24.8 °F 29.1 °F 89% 29.88 in 10.0 mi NNE 8.1 mph - N/A   Overcast
5:14 PM 31.8 °F 23.3 °F 29.1 °F 90% 29.86 in 10.0 mi NNE 10.4 mph - N/A   Overcast
5:33 PM 31.6 °F 22.6 °F 28.8 °F 89% 29.86 in 10.0 mi NNE 11.5 mph 17.3 mph N/A   Overcast
5:53 PM 31.6 °F 23.1 °F 28.8 °F 89% 29.87 in 10.0 mi NNE 10.4 mph - N/A   Overcast
6:14 PM 31.8 °F 23.9 °F 28.9 °F 89% 29.87 in 10.0 mi NNE 9.2 mph - N/A   Overcast
6:33 PM 31.8 °F 23.9 °F 29.1 °F 90% 29.87 in 10.0 mi NE 9.2 mph - N/A   Overcast
6:53 PM 31.8 °F 24.6 °F 29.1 °F 90% 29.87 in 10.0 mi NE 8.1 mph - N/A   Overcast
7:13 PM 31.8 °F 22.8 °F 29.1 °F 90% 29.88 in 10.0 mi NE 11.5 mph - N/A Snow Light Snow
7:33 PM 31.8 °F 23.3 °F 29.3 °F 90% 29.89 in 4.0 mi NNE 10.4 mph 18.4 mph N/A Snow Light Snow
7:53 PM 31.5 °F 23.5 °F 29.3 °F 92% 29.90 in 3.0 mi NNE 9.2 mph - N/A Snow Light Snow
8:13 PM 31.1 °F 22.4 °F 29.3 °F 93% 29.90 in 2.5 mi NNE 10.4 mph - N/A Snow Light Snow
8:33 PM 31.1 °F 21.4 °F 29.5 °F 94% 29.89 in 2.5 mi NE 12.7 mph - N/A Snow Light Snow
8:53 PM 31.1 °F 22.4 °F 29.8 °F 95% 29.87 in 2.5 mi NE 10.4 mph 17.3 mph N/A Snow Light Snow
9:13 PM 31.3 °F 22.7 °F 30.0 °F 95% 29.86 in 2.0 mi NE 10.4 mph 17.3 mph N/A Snow Light Snow
9:33 PM 31.5 °F 22.3 °F 30.2 °F 95% 29.85 in 1.8 mi NE 11.5 mph 18.4 mph N/A Snow Light Snow
9:53 PM 31.6 °F 24.4 °F 30.2 °F 94% 29.84 in 2.0 mi NE 8.1 mph 17.3 mph N/A Snow Light Snow
10:13 PM 31.5 °F 22.3 °F 30.0 °F 94% 29.83 in 2.0 mi NE 11.5 mph 16.1 mph N/A Snow Light Snow
10:33 PM 31.5 °F 22.3 °F 30.0 °F 94% 29.80 in 1.8 mi NE 11.5 mph 17.3 mph N/A Snow Light Snow
10:53 PM 31.5 °F 20.5 °F 30.0 °F 94% 29.79 in 1.5 mi ENE 16.1 mph 21.9 mph N/A Snow Light Snow
11:13 PM 31.6 °F 22.6 °F 30.2 °F 94% 29.78 in 5.0 mi NE 11.5 mph 19.6 mph N/A Snow Light Snow
11:33 PM 31.8 °F 22.3 °F 30.2 °F 94% 29.77 in 4.0 mi NE 12.7 mph 18.4 mph N/A Snow Light Snow
11:53 PM 32.0 °F 24.2 °F 30.6 °F 94% 29.76 in 3.0 mi ENE 9.2 mph 18.4 mph N/A Snow Light Snow